IRIDIUM 33 DEB, 35616

Orbit data source: Space-Track

IRIDIUM 33 DEB, 35616 is space debris in LEO originally from a launch on Sun, 14 Sep 1997 UTC launched from the Tyuratam Missile And Space Complex (TTMTR). The debris from Iridium 33, an American commercial communications satellite, has been tracked extensively since its accidental collision with the defunct Russian satellite Cosmos 2251 in 2009. This event, occurring at high speed in low Earth orbit (LEO), generated thousands of pieces of space debris, significantly increasing the risk of further collisions. The Iridium 33 debris cloud has impacted space traffic management and orbital debris mitigation strategies, making it a subject of ongoing study in space situational awareness.

Loading next visibility...
Identifier
35616, 1997-051QN
Orbit
LEO
Country
Flag of USUS
Related business
Manufacturer
Unknown
Mission
Spacecraft
Bus & Motor
Unknown
Mass
Unknown
Launch date (UTC)
1997-09-14 (28 years ago)
Launch vehicle
Unknown
Launch site
Tyuratam Missile And Space Complex (TTMTR)
Object type
Payload
Rocket body
Debris
Shape & HBR
Unknown shape, 0.1 m
Radar Cross Section
Small (<0.1 m²)

Expand to show TLE details & history
Last TLE update: 3 days ago

TLE from 3 days ago
0 IRIDIUM 33 DEB
1 35616U 97051QN  26035.23725939  .00016153  00000-0  19449-2 0  9994
2 35616  86.3557 321.3185 0010572  10.2459 349.8978 14.83757518883675
Epoch: 2026-02-04T05:41Z
TLE epoch observation values (Epoch: 2026-02-04T05:41:39.211Z)
Latitude
0.00004°
Longitude
101.4984°
Altitude
613.326 km
Speed
7.556 km/s
True Right ascension
21h 25m 16s
True Declination
0° 00' 00"
Sunlit
Object was in daylight at epoch
Visualization orbit readout
Latitude
Unknown
Longitude
Unknown
Altitude
Unknown
Speed
Unknown
Apparent Right ascension
Unknown
Apparent Declination
Unknown
Sunlit
N/A
Visualization observer readout
Local Sidereal Time
12:54:46
Azimuth
Unknown
Elevation
Unknown
Doppler factor
Unknown
Orbital elements
Apogee altitude
621.777 km
Perigee altitude
606.992 km
Semi-major axis
6,992.521 km
Eccentricity
0.00106
Inclination
86.3557°
RAAN
321.3185°
Arg. of periapsis
10.2459°
True anomaly
349.87652°
Mean anomaly
349.8978°
Eccentric anomaly
349.88716°
Mean motion
3.71187 °/min
Orbital period
96.99 mins
BSTAR
0.0019449
Loading maneuver chart data...
Computing Atmospheric mass density...

Documentation

Showing up to 5 results
|